Overview Statistics Trail Chart Weather Telemetry Raw packets
 

This is the latest recevied weather packets stored in our database for station/object NR0A-4. If no packets are shown the sender has not sent any weather packets the latest 10 day(s).

<< 97 98 99 100 101 102 103 >>
Time Temp. Humidity Pressure Rain* Wind** Luminosity Snow
1787932804 25° C 63% 1019.2 hPa 0 mm - 638 W/m² -
1787932505 24.44° C 63% 1019.3 hPa 0 mm - 522 W/m² -
1787932204 25° C 64% 1019.2 hPa 0 mm - 561 W/m² -
1787931905 25° C 64% 1019.3 hPa 0 mm - 343 W/m² -
1787931605 24.44° C 65% 1019.3 hPa 0 mm - 452 W/m² -
1787931304 24.44° C 64% 1019.4 hPa 0 mm - 649 W/m² -
1787931005 24.44° C 64% 1019.5 hPa 0 mm - 318 W/m² -
1787930704 24.44° C 66% 1019.5 hPa 0 mm - 580 W/m² -
1787930404 24.44° C 66% 1019.4 hPa 0 mm - 554 W/m² -
1787930113 23.89° C 66% 1019.4 hPa 0 mm - 520 W/m² -
1787929804 23.89° C 67% 1019.5 hPa 0 mm - 496 W/m² -
1787929505 23.89° C 69% 1019.5 hPa 0 mm - 462 W/m² -
1787929206 23.33° C 68% 1019.6 hPa 0 mm - 431 W/m² -
1787928904 23.33° C 68% 1019.6 hPa 0 mm - 301 W/m² -
1787928605 23.33° C 69% 1019.6 hPa 0 mm - 373 W/m² -
1787928304 23.33° C 68% 1019.7 hPa 0 mm - 427 W/m² -
1787928005 22.78° C 69% 1019.6 hPa 0 mm - 406 W/m² -
1787927704 22.78° C 70% 1019.6 hPa 0 mm - 413 W/m² -
1787927404 22.78° C 71% 1019.6 hPa 0 mm - 392 W/m² -
1787927105 22.22° C 70% 1019.7 hPa 0 mm - 383 W/m² -
1787926815 22.22° C 72% 1019.8 hPa 0 mm - 369 W/m² -
1787926505 21.67° C 73% 1019.7 hPa 0 mm - 350 W/m² -
1787926205 21.67° C 75% 1019.7 hPa 0 mm - 332 W/m² -
1787925913 21.11° C 77% 1019.8 hPa 0 mm - 155 W/m² -
1787925604 20.56° C 77% 1019.7 hPa 0 mm - 227 W/m² -

* Rain latest hour (hover to see other rain measurements)
** Current wind speed in m/s (hover to see current wind gust speed)